Погода в Кирове

Хотите узнать прогноз погоды в Кирове? Тогда Вам сюда: Погода в Кирове

Поиск расширенной информации на нашем сайте:

Полезная информация:

Новости сайта



02.01.2020
Опубликован Долгосрочный прогноз погоды по городам России и ближнего зарубежья на январь 2020 года.
Карты: Прогноз на январь и февраль 2020 года, Сравнение прогнозируемой аномалии приземной температуры воздуха на январь 2020 года по разным моделям.




Погода в Кирове - сегодня

Время (UTC), дата Ветер
(°,м/с) 
Видим.   Явления Облачность Т
(°С)
Тd
(°С)
f(%) Тe
(°С)
Pmin
(гПа)
dP
(гПа)
Po
(мм)
O2
(г/м3)
Тmin Tmax R s Состояние
почвы
21 22.09.20 280 (З) 2-5{10}  20000 м  слаб. ливневой дождь  8/8 600 м кучево-дожд. 
[Cb cap]
+10.1 +7.3 83 +10  998.8  1.1  735  284           
00 23.09.20 280 (З) 2-4{06}  20000 м  {ливн. осадки}  8/8 600 м кучево-дожд. 
[Cb calv]
+9.2 +6.5 83 +9  1001.1  2.2  737  286           
03 23.09.20 290 (З) 2-5{06}  20000 м    8/3 600 м средняя, верхняя 
[Sc diur, vesp|Ac lent|Ci fib]
+7.7 +4.8 82 +8  1004.6  3.3  739  289  +7.7    0.3    влажная 
06 23.09.20 310 (СЗ) 2-6{07}  20000 м    9/0 верхняя 
[Cc]
+9.3 +2.8 64 +9  1007.4  2.9  741  288  +7.6         
09 23.09.20 300 (СЗ) 2-7{10}  20000 м    9/1 600 м средняя, верхняя 
[Cu hum|Ac lent|Cc]
+12 +1.4 48 +12  1009.6  2.3  743  287           
12 23.09.20 310 (СЗ) 2-6{09}  20000 м    9/3 600 м средняя, верхняя 
[Cu med, cong|Ac trans|Ci]
+12.4 +1.4 47 +13  1012.2  2.6  745  287           
15 23.09.20 тихо () -0{07}  20000 м    8/3 600 м средняя, верхняя 
[Sc diur, vesp|Ac lent|Ci fib]
+9.2 +2.5 63 +9  1015.3  2.8  747  291    +12.7       
18 23.09.20 тихо () -0{02}  20000 м    3/0 средняя 
[Ac lent]
+3.8 +1.7 86 +4  1017.4  1.7  748  297           
21 23.09.20 тихо () -0{01}  20000 м    ясно 
+1.8 +0.4 90 +2  1019.5  1.9  750  300           
00 24.09.20 тихо () -0{01}  20000 м    ясно 
+0.8 -0.2 93 +1  1021.5  1.9  751  302           
03 24.09.20 тихо () -0{01}  20000 м    1/1 600 м 
[Sc]
+0 -0.9 94 1023  1.4  752  303  -0.2        влажная 
06 24.09.20 220 (ЮЗ) 1-3{03}  20000 м    ясно 
+10.8 +4.2 64 +12  1023.4  1.2  753  291  -0.3         
09 24.09.20 220 (ЮЗ) 1-3{05}  20000 м    ясно 
+14.5 +1.7 42 +16  1023.5  0.3  753  288           
12 24.09.20 210 (ЮЗ) 2-3{05}  20000 м    4/0 верхняя 
[Ci fib]
+16 -0.2 33 +17  1023.2  -0.2  753  287           
15 24.09.20 тихо () -0{04}  20000 м    3/0 верхняя 
[Ci fib]
+9.4 +2.5 62 +9  1024  0.3  753  293    +16.3       
18 24.09.20 тихо () -0{03}  20000 м    ясно 
+8.2 +1.9 64 +8  1024.6  0.6  754  295           
21 24.09.20 140 (ЮВ) 1-1{01}  20000 м    ясно 
+4.3 +2.1 86 +5  1025.5  0.5  754  299           
00 25.09.20 160 (Ю) 1-1{02}  20000 м    ясно 
+4.5 +2.2 85 +5  1026.2  0.7  755  299           
03 25.09.20 120 (ЮВ) 1-1{02}  20000 м    8/3 600 м верхняя 
[Sc|Ci]
+3.8 +2.3 90 +5  1026.6  0.4  755  300  +3.6        влажная 
06 25.09.20 160 (Ю) 2-3{03}  20000 м    3/0 верхняя 
[Ci]
+12.3 +5.5 63 +13  1026.2  0.2  755  290           
09 25.09.20 190 (Ю) 2-4{05}  20000 м    8/0 верхняя 
[Cc]
+18.8 +8.4 51 +20  1025.9  0.1  755  283           
12 25.09.20 220 (ЮЗ) 1-3{06}  20000 м    8/0 верхняя 
[Ci fib]
+19.4 +7.6 46 +21  1026  0.2  755  283           
15 25.09.20 210 (ЮЗ) 1-2{03}  20000 м    8/1 1000 м верхняя 
[Sc|Cs]
+13.3 +8.1 71 +15  1026.4  755  289    +20       
18 25.09.20 тихо () -0{02}  20000 м    9/0 средняя 
[Ac As]
+10.5 +7.9 84 +11  1026.8  0.2  756  292           
21 25.09.20 210 (ЮЗ) 1-1{03}  20000 м    ясно 
+9.1 +6.9 86 +10  1027.9  756  294           
Время (UTC), дата Ветер
(°,м/с) 
Видим.   Явления Облачность Т
(°С)
Тd
(°С)
f(%) Тe
(°С)
Pmin
(гПа)
dP
(гПа)
Po
(мм)
O2
(г/м3)
Тmin Tmax R s Состояние
почвы

Для получения пояснительной информации подведите курсор к названию столбца.

ПОГОДА в Кирове - архив

Всё, что Вы хотите узнать о погоде в Кирове - удобно и подробно!

Выберите нужную дату (начиная с 1 января 2019* года) и нажмите кнопку "Найти".
Будут отображены архивные сводки погоды по пункту Киров, начиная с указанной даты.


Отображать данные в формате CSV (для использования в таблицах Excel)


Внимание! Наш архив погоды предназначен исключительно для личного некоммерческого использования в познавательных целях. Если Вам необходимы официальные справки о состоянии погоды (для производственных, юридических, коммерческих и т.п. целей), обращайтесь в органы Росгидромета.

*Примечание: данная дата относится к архиву по метеостанциям СССР (Россия, СНГ, Балтия).
Архив по метеостанциям Зарубежной Европы и Азии (кроме Китая) хранится 10 дней, по другим регионам земного шара (Китай, Африка, Америка, Австралия, Океания) - 1 день.

Киров - район местоположения метеостанции


Название, широта, долгота, высота метеостанции:
Киров 58.6°ш. 49.6°д. 158 м над ур. моря [Российская Федерация]

Дополнительная информация

В oтличие oт бoльшинства пoгoдных сайтoв мы публикуем пoдрoбную метеoинфoрмацию в детальнoм прoфессиoнальнoм фoрмате.

Характеристики температуры и влажнoсти вoздуха измеряются на высoте 2 м в тени вдали oт зданий и деревьев.
Скoрoсть ветра измеряется на высoте 10 м (на урoвне рoста челoвека скoрoсть ветра ниже в 1.5-2 раза). Если метеoстанция нахoдится в гoрoде или в лесу, тo скoрoсть ветра занижена на 2-4 м/с пo сравнению с oткрытым местoм. Скoрoсть ветра над акватoриями крупных рек и oзёр, а также на вершинах хoлмoв на 2-5 м/с выше, чем в oбычных услoвиях.
Атмoсфернoе давление в разных тoчках местнoсти мoжет значительнo oтличаться oт давления на метеoстанции, в зависимoсти oт услoвий рельефа (при пoдъёме на 10 м давление пoнижается примернo на 1 мм рт.ст.).